Covington, KY

4:28 PM EST on January 22, 2018 (GMT -0500)
Cincinnati-Northern KY International

Weather History for KCVG - October, 2014

Change the Weather History Date:

Monday, October 13, 2014

  Actual Average Record
Temperature  
Mean Temperature 70 °F 57 °F  
Max Temperature 77 °F 67 °F 88 °F (1928)
Min Temperature 62 °F 46 °F 25 °F (1988)
Degree Days  
Heating Degree Days 0 9  
Month to date heating degree days 108 95  
Since 1 July heating degree days 164 153  
Cooling Degree Days 5 1  
Month to date cooling degree days 13 15  
Year to date cooling degree days 1077 1120  
Growing Degree Days 18 (Base 50)    
Moisture  
Dew Point 62 °F    
Average Humidity 77    
Maximum Humidity 93    
Minimum Humidity 60    
Precipitation  
Precipitation 0.17 in 0.11 in 1.44 in (1983)
Month to date precipitation 2.21 1.37  
Year to date precipitation 35.87 33.79  
Snow  
Snow 0.00 in 0.00 in 0.00 in ()
Month to date snowfall 0.0 0.1  
Since 1 July snowfall 0.0 0.1  
Since 1 September snowfall 0.0 0.1  
Snow Depth 0.00 in    
Sea Level Pressure  
Sea Level Pressure 29.93 in    
Wind  
Wind Speed 13 mph (South)    
Max Wind Speed 21 mph    
Max Gust Speed 30 mph    
Visibility 9 miles    
Events Rain    
T = Trace of Precipitation, MM = Missing Value Source: NWS Daily Summary

Daily Weather History Graph

Daily Weather History Graph

Search for Another Location

Airport or City:

Trip Planner

Search our weather history database for the weather conditions in past years. The results will help you decide how hot, cold, wet, or windy it might be!

Date:

Astronomy

Oct. 13, 2014 Rise Set
Actual Time 7:46 AM EDT 7:02 PM EDT
Civil Twilight 7:19 AM EDT 7:29 PM EDT
Nautical Twilight 6:48 AM EDT 8:00 PM EDT
Astronomical Twilight 6:17 AM EDT 8:31 PM EDT
Moon 11:14 PM EDT (10/13) 12:58 PM EDT (10/13)
Length of Visible Light 12h 10m
Length of Day
11h 16m
Waning Gibbous, 70% of the Moon is Illuminated
Oct 13
Waning Gibbous
Oct 15
Last Quarter
Oct 23
New
Oct 30
First Quarter
Nov 6
Full

Hourly Weather History & Observations

Time (EDT) Temp. Dew Point Humidity Pressure Visibility Wind Dir Wind Speed Gust Speed Precip Events Conditions
12:52 AM 63.0 °F 60.1 °F 90% 29.97 in 10.0 mi South 10.4 mph - N/A   Mostly Cloudy
1:52 AM 64.0 °F 61.0 °F 90% 29.97 in 10.0 mi South 6.9 mph - 0.00 in   Mostly Cloudy
2:52 AM 63.0 °F 61.0 °F 93% 29.97 in 9.0 mi South 6.9 mph - N/A   Mostly Cloudy
3:52 AM 64.0 °F 61.0 °F 90% 29.96 in 9.0 mi South 6.9 mph - N/A   Partly Cloudy
4:52 AM 64.9 °F 62.1 °F 90% 29.96 in 10.0 mi South 6.9 mph - N/A   Mostly Cloudy
5:52 AM 64.9 °F 62.1 °F 90% 29.96 in 8.0 mi South 8.1 mph - 0.00 in   Overcast
6:31 AM 66.2 °F 62.6 °F 88% 29.98 in 10.0 mi South 12.7 mph 19.6 mph N/A   Overcast
6:52 AM 66.9 °F 63.0 °F 87% 29.96 in 10.0 mi South 11.5 mph - 0.00 in   Overcast
7:28 AM 66.2 °F 62.6 °F 88% 29.99 in 4.0 mi SSW 9.2 mph 19.6 mph 0.02 in Rain Heavy Rain
7:45 AM 66.2 °F 62.6 °F 88% 29.99 in 5.0 mi SSW 10.4 mph - 0.07 in Rain Light Rain
7:52 AM 66.0 °F 63.0 °F 90% 29.97 in 6.0 mi SSW 16.1 mph 21.9 mph 0.07 in Rain Light Rain
8:12 AM 66.2 °F 62.6 °F 88% 29.99 in 6.0 mi SSW 11.5 mph 20.7 mph 0.03 in Rain Light Rain
8:52 AM 66.0 °F 63.0 °F 90% 30.01 in 6.0 mi SSW 12.7 mph 25.3 mph 0.06 in Rain Light Rain
9:16 AM 66.2 °F 62.6 °F 88% 30.03 in 7.0 mi SSW 13.8 mph 24.2 mph 0.02 in Rain Light Rain
9:52 AM 66.0 °F 63.0 °F 90% 29.99 in 10.0 mi SSW 12.7 mph 18.4 mph 0.04 in Rain Light Rain
10:52 AM 68.0 °F 63.0 °F 84% 29.98 in 10.0 mi South 11.5 mph - 0.00 in   Overcast
11:52 AM 69.1 °F 62.1 °F 78% 29.98 in 10.0 mi South 15.0 mph 23.0 mph N/A   Overcast
12:52 PM 72.0 °F 64.0 °F 76% 29.96 in 10.0 mi South 12.7 mph - N/A   Mostly Cloudy
1:52 PM 73.4 °F 64.4 °F 73% 29.95 in 10.0 mi SSE 12.7 mph - N/A   Mostly Cloudy
2:52 PM 75.0 °F 64.9 °F 71% 29.91 in 10.0 mi South 15.0 mph - N/A   Overcast
3:52 PM 75.9 °F 66.0 °F 71% 29.88 in 10.0 mi SSE 12.7 mph 19.6 mph N/A   Mostly Cloudy
4:52 PM 75.9 °F 62.1 °F 62% 29.86 in 10.0 mi South 20.7 mph 28.8 mph N/A   Overcast
5:52 PM 75.9 °F 60.1 °F 58% 29.85 in 10.0 mi South 17.3 mph 26.5 mph N/A   Overcast
6:52 PM 73.9 °F 62.1 °F 66% 29.84 in 10.0 mi SSE 10.4 mph - N/A   Overcast
7:52 PM 73.0 °F 62.1 °F 68% 29.83 in 10.0 mi SSE 15.0 mph - N/A   Mostly Cloudy
8:52 PM 73.0 °F 60.1 °F 64% 29.82 in 10.0 mi SE 15.0 mph - N/A   Overcast
9:52 PM 72.0 °F 60.1 °F 66% 29.81 in 10.0 mi SE 16.1 mph 24.2 mph N/A   Overcast
10:52 PM 72.0 °F 60.1 °F 66% 29.78 in 10.0 mi SE 16.1 mph - N/A   Overcast
11:52 PM 72.0 °F 60.1 °F 66% 29.77 in 10.0 mi SSE 17.3 mph 23.0 mph N/A   Overcast